FENGYUN 1C DEB, 30146

Orbit data source: Space-Track

FENGYUN 1C DEB, 30146 is space debris in SSO originally from a launch on Mon, 10 May 1999 UTC launched from the Taiyaun Space Center, China (TSC). Fengyun 1C debris stems from the Chinese weather satellite Fengyun-1C, which was intentionally destroyed by a Chinese anti-satellite missile in 2007. This event dramatically increased the amount of space debris, with thousands of trackable fragments posing hazards to satellites and human spaceflight. The Fengyun 1C debris cloud has become a focal point in discussions about space sustainability and the need for international regulations to prevent the creation of new debris.

Loading next visibility...
Identifier
30146, 1999-025TB
Orbit
SSO
Country
Flag of CNCN / PRC
Related business
Manufacturer
Unknown
Mission
Spacecraft
Bus & Motor
Unknown
Mass
Unknown
Launch date (UTC)
1999-05-10 (27 years ago)
Launch vehicle
Unknown
Launch site
Taiyaun Space Center, China (TSC)
Object type
Payload
Rocket body
Debris
Shape & HBR
Unknown shape, 0.1 m
Radar Cross Section
Medium (>0.1 m² and <1 m²)

Expand to show TLE details & history
Last TLE update: 13 hours ago

TLE from 13 hours ago
0 FENGYUN 1C DEB
1 30146U 99025TB  26256.82518792  .00000343  00000-0  28359-3 0  9992
2 30146  98.0542  23.0777 0178526  78.5768  72.8592 13.86984444992307
Epoch: 2026-09-13T19:48Z
TLE epoch observation values (Epoch: 2026-09-13T19:48:16.236Z)
Latitude
26.34912°
Longitude
-82.80635°
Altitude
906.042 km
Speed
7.42 km/s
True Right ascension
13h 48m 18s
True Declination
26° 12' 55"
Sunlit
Object was in daylight at epoch
Visualization orbit readout
Latitude
Unknown
Longitude
Unknown
Altitude
Unknown
Speed
Unknown
Apparent Right ascension
Unknown
Apparent Declination
Unknown
Sunlit
N/A
Visualization observer readout
Local Sidereal Time
01:06:34
Azimuth
Unknown
Elevation
Unknown
Doppler factor
Unknown
Orbital elements
Apogee altitude
1,066.973 km
Perigee altitude
805.806 km
Semi-major axis
7,314.527 km
Eccentricity
0.01785
Inclination
98.0542°
RAAN
23.0777°
Arg. of periapsis
78.5768°
True anomaly
74.82664°
Mean anomaly
72.8592°
Eccentric anomaly
73.84167°
Mean motion
3.46948 °/min
Orbital period
103.76 mins
BSTAR
0.00028359
Loading maneuver chart data...
Computing Atmospheric mass density...

Documentation

Showing up to 5 results
|